Regional Weather Roundup
Issued by NWS

Home | Current Version | Previous Version | Text Only | Print | Product List | Glossary Off
Versions: 1 2 3 4 5 6 7 8 9 10 11 12 13 14 15 16 17 18 19 20 21 22 23 24 25 26 27 28 29 30 31 32 33 34 35 36 37 38 39 40 41 42 43 44 45 46 47 48 49 50

000
ASUS43 KLSX 300559
RWRMO

WEATHER SUMMARY FOR MISSOURI
NATIONAL WEATHER SERVICE SPRINGFIELD MO
1200 AM CST FRI JAN 30 2015

NOTE: "FAIR" INDICATES FEW OR NO CLOUDS BELOW 12,000 FEET WITH NO
       SIGNIFICANT WEATHER AND/OR OBSTRUCTIONS TO VISIBILITY.
       CURRENT SKY AND/OR WEATHER CONDITIONS ARE NOT AVAILABLE FOR
       CHILLICOTHE AND FARMINGTON.

MOZ001>031-035>038-043-044-053-054-300700-
...NORTHERN AND WESTERN MISSOURI...

CITY           SKY/WX    TMP DP  RH WIND       PRES   REMARKS
KANSAS CTY INT CLEAR     25  21  85 N9        30.52S WCI  15
6HR MIN TEMP:  25; 6HR MAX TEMP:  36;

KANSAS C DTWN  CLEAR     30  23  75 CALM      30.54R
6HR MIN TEMP:  30; 6HR MAX TEMP:  39;

LEE`S SUMMIT   CLEAR     29  22  75 N8        30.52R WCI  21
6HR MIN TEMP:  29; 6HR MAX TEMP:  38;

ST JOSEPH      CLEAR     20  17  88 NE7       30.54S WCI  11
6HR MIN TEMP:  17; 6HR MAX TEMP:  36;

CHILLICOTHE      N/A     31  22  69 NW7       30.54R WCI  24
6HR MIN TEMP:  30; 6HR MAX TEMP:  37;

KIRKSVILLE     PTCLDY    27  21  78 NW8       30.50R WCI  19
6HR MIN TEMP:  26; 6HR MAX TEMP:  35; 6HR PCP: TRACE;


$$
MOZ066>068-077>081-088>096-101>105-300700-
...SOUTHWEST MISSOURI...

CITY           SKY/WX    TMP DP  RH WIND       PRES   REMARKS
SPRINGFIELD    CLEAR     27  22  81 N6        30.48R WCI  20
6HR MIN TEMP:  27; 6HR MAX TEMP:  38;

JOPLIN         CLEAR     30  25  81 N3        30.53R
6HR MIN TEMP:  30; 6HR MAX TEMP:  38;


$$
MOZ032>034-039>042-045>050-055>058-069>072-300700-
...CENTRAL MISSOURI...

CITY           SKY/WX    TMP DP  RH WIND       PRES   REMARKS
COLUMBIA       CLEAR     30  22  72 NW12      30.48R WCI  20
6HR MIN TEMP:  30; 6HR MAX TEMP:  39;

JEFFERSON CITY PTCLDY    34  22  61 NW10      30.51R WCI  26
6HR MIN TEMP:  34; 6HR MAX TEMP:  41;

ROLLA          CLOUDY    34  24  67 NW9       30.44R WCI  27
6HR MIN TEMP:  34; 6HR MAX TEMP:  38;

SEDALIA        CLEAR     30  23  75 N7        30.51F WCI  23
6HR MIN TEMP:  30; 6HR MAX TEMP:  39;

OSAGE BEACH    CLOUDY    34  21  60 N10       30.49R WCI  26

$$
MOZ051-052-059>065-300700-
...EAST CENTRAL MISSOURI...

CITY           SKY/WX    TMP DP  RH WIND       PRES   REMARKS
ST LOUIS INTL  CLOUDY    37  24  59 NW12      30.44R WCI  29
6HR MIN TEMP:  37; 6HR MAX TEMP:  39;

SPIRIT OF STL  CLOUDY    36  24  62 NW9G17    30.44R WCI  29
6HR MIN TEMP:  36; 6HR MAX TEMP:  39;

ST CHARLES     CLOUDY    35  25  66 NW10      30.44R WCI  27
6HR MIN TEMP:  35; 6HR MAX TEMP:  38;


$$
MOZ072>076-082>087-097>100-106>115-300700-
...SOUTH CENTRAL AND SOUTHEAST MISSOURI...

CITY           SKY/WX    TMP DP  RH WIND       PRES   REMARKS
CAPE GIRARDEAU CLOUDY    39  29  67 N15       30.42R
6HR MIN TEMP:  38; 6HR MAX TEMP:  42;

FARMINGTON     CLOUDY    36  23  60 NW12G18   30.44S WCI  27
6HR MIN TEMP:  36; 6HR MAX TEMP:  39;

POPLAR BLUFF   MOCLDY    38  27  64 N10       30.41S
6HR MIN TEMP:  38; 6HR MAX TEMP:  43;

WEST PLAINS    MOCLDY    33  25  72 N8        30.45R WCI  26
6HR MIN TEMP:  31; 6HR MAX TEMP:  40;


$$



USA.gov is the U.S. government's official web portal to all federal, state and local government web resources and services.